| time (UTC) | temp C | wind direction | speed KPH | gust KPH | rain 1hr cm | rain 24hr cm | rain mn cm | humidity % | barometer mb |
| 20260901124604 | 16 | 92 | 1.6 | 3.2 | 0.00 | 0.00 | 0.00 | 36 | 1013.7 |
| 20260901124104 | 16 | 92 | 1.6 | 3.2 | 0.00 | 0.00 | 0.00 | 35 | 1013.7 |
| 20260901123604 | 17 | 92 | 1.6 | 3.2 | 0.00 | 0.00 | 0.00 | 35 | 1013.7 |
| 20260901123104 | 17 | 92 | 1.6 | 3.2 | 0.00 | 0.00 | 0.00 | 35 | 1013.7 |
| 20260901122604 | 17 | 92 | 1.6 | 3.2 | 0.00 | 0.00 | 0.00 | 36 | 1013.7 |
| 20260901122104 | 17 | 92 | 1.6 | 3.2 | 0.00 | 0.00 | 0.00 | 36 | 1013.8 |
| 20260901121604 | 17 | 92 | 1.6 | 3.2 | 0.00 | 0.00 | 0.00 | 35 | 1013.7 |
| 20260901121104 | 17 | 92 | 1.6 | 3.2 | 0.00 | 0.00 | 0.00 | 35 | 1013.7 |
| 20260901120604 | 17 | 92 | 1.6 | 3.2 | 0.00 | 0.00 | 0.00 | 35 | 1013.7 |
| 20260901115104 | 17 | 92 | 0.0 | 3.2 | 0.00 | 0.00 | 0.00 | 35 | 1013.7 |
| 20260901114104 | 17 | 92 | 1.6 | 3.2 | 0.00 | 0.00 | 0.00 | 34 | 1013.8 |
| 20260901113604 | 17 | 92 | 0.0 | 1.6 | 0.00 | 0.00 | 0.00 | 34 | 1013.8 |
| 20260901113104 | 17 | 92 | 0.0 | 1.6 | 0.00 | 0.00 | 0.00 | 34 | 1013.8 |
| 20260901112605 | 17 | 92 | 0.0 | 3.2 | 0.00 | 0.00 | 0.00 | 34 | 1013.9 |
| 20260901112104 | 17 | 92 | 1.6 | 3.2 | 0.00 | 0.00 | 0.00 | 34 | 1013.9 |
| 20260901111604 | 17 | 92 | 1.6 | 3.2 | 0.00 | 0.00 | 0.00 | 34 | 1014.0 |
| 20260901111104 | 17 | 92 | 1.6 | 3.2 | 0.00 | 0.00 | 0.00 | 34 | 1014.1 |
| 20260901110104 | 17 | 92 | 0.0 | 3.2 | 0.00 | 0.00 | 0.00 | 33 | 1014.1 |
| 20260901105607 | 17 | 92 | 1.6 | 3.2 | 0.00 | 0.00 | 0.00 | 33 | 1014.1 |
| 20260901105104 | 18 | 92 | 1.6 | 3.2 | 0.00 | 0.00 | 0.00 | 33 | 1014.1 |
| 20260901104103 | 18 | 92 | 1.6 | 3.2 | 0.00 | 0.00 | 0.00 | 34 | 1014.1 |
| 20260901103104 | 18 | 92 | 1.6 | 3.2 | 0.00 | 0.00 | 0.00 | 34 | 1014.0 |
| 20260901102604 | 18 | 92 | 1.6 | 3.2 | 0.00 | 0.00 | 0.00 | 33 | 1014.0 |
| 20260901101608 | 18 | 92 | 1.6 | 3.2 | 0.00 | 0.00 | 0.00 | 33 | 1014.0 |
| 20260901100604 | 18 | 92 | 1.6 | 3.2 | 0.00 | 0.00 | 0.00 | 33 | 1014.0 |
| 20260901100105 | 18 | 92 | 1.6 | 3.2 | 0.00 | 0.00 | 0.00 | 33 | 1014.0 |
| 20260901095604 | 18 | 92 | 1.6 | 3.2 | 0.00 | 0.00 | 0.00 | 33 | 1014.0 |
| 20260901095103 | 18 | 92 | 1.6 | 3.2 | 0.00 | 0.00 | 0.00 | 33 | 1013.9 |
| 20260901093604 | 18 | 92 | 1.6 | 3.2 | 0.00 | 0.00 | 0.00 | 36 | 1014.0 |
| 20260901093104 | 18 | 92 | 1.6 | 3.2 | 0.00 | 0.00 | 0.00 | 36 | 1013.9 |
| 20260901092604 | 18 | 92 | 1.6 | 3.2 | 0.00 | 0.00 | 0.00 | 36 | 1013.9 |
| 20260901092104 | 17 | 92 | 1.6 | 3.2 | 0.00 | 0.00 | 0.00 | 36 | 1014.0 |
| 20260901091604 | 17 | 92 | 1.6 | 3.2 | 0.00 | 0.00 | 0.00 | 36 | 1014.0 |
| 20260901091104 | 17 | 92 | 1.6 | 3.2 | 0.00 | 0.00 | 0.00 | 36 | 1014.0 |
| 20260901090604 | 17 | 92 | 1.6 | 3.2 | 0.00 | 0.00 | 0.00 | 36 | 1013.9 |
| 20260901090104 | 18 | 92 | 0.0 | 3.2 | 0.00 | 0.00 | 0.00 | 35 | 1013.9 |
| 20260901085104 | 18 | 92 | 1.6 | 3.2 | 0.00 | 0.00 | 0.00 | 34 | 1014.1 |
| 20260901084604 | 18 | 92 | 0.0 | 1.6 | 0.00 | 0.00 | 0.00 | 33 | 1014.1 |
| 20260901084104 | 18 | 92 | 0.0 | 3.2 | 0.00 | 0.00 | 0.00 | 33 | 1014.2 |
| 20260901083106 | 18 | 92 | 1.6 | 3.2 | 0.00 | 0.00 | 0.00 | 34 | 1014.2 |
| 20260901082603 | 18 | 92 | 1.6 | 3.2 | 0.00 | 0.00 | 0.00 | 36 | 1014.2 |
| 20260901082103 | 18 | 92 | 0.0 | 1.6 | 0.00 | 0.00 | 0.00 | 37 | 1014.2 |
| 20260901081605 | 18 | 92 | 0.0 | 3.2 | 0.00 | 0.00 | 0.00 | 37 | 1014.3 |
| 20260901081104 | 18 | 92 | 0.0 | 3.2 | 0.00 | 0.00 | 0.00 | 37 | 1014.3 |
| 20260901080604 | 18 | 92 | 1.6 | 3.2 | 0.00 | 0.00 | 0.00 | 36 | 1014.5 |
| 20260901080104 | 18 | 92 | 0.0 | 3.2 | 0.00 | 0.00 | 0.00 | 36 | 1014.5 |
| 20260901075604 | 18 | 92 | 0.0 | 3.2 | 0.00 | 0.00 | 0.00 | 36 | 1014.6 |
| 20260901075104 | 18 | 92 | 1.6 | 3.2 | 0.00 | 0.00 | 0.00 | 36 | 1014.5 |
| 20260901074604 | 19 | 92 | 0.0 | 1.6 | 0.00 | 0.00 | 0.00 | 36 | 1014.5 |
| 20260901074104 | 19 | 92 | 0.0 | 1.6 | 0.00 | 0.00 | 0.00 | 36 | 1014.4 |
| 20260901073604 | 19 | 92 | 0.0 | 1.6 | 0.00 | 0.00 | 0.00 | 35 | 1014.3 |
| 20260901073104 | 20 | 92 | 0.0 | 1.6 | 0.00 | 0.00 | 0.00 | 35 | 1014.3 |
| 20260901072604 | 20 | 92 | 0.0 | 1.6 | 0.00 | 0.00 | 0.00 | 35 | 1014.1 |
| 20260901072104 | 19 | 92 | 1.6 | 1.6 | 0.00 | 0.00 | 0.00 | 35 | 1014.1 |
| 20260901071104 | 19 | 92 | 1.6 | 3.2 | 0.00 | 0.00 | 0.00 | 33 | 1014.2 |
| 20260901070104 | 20 | 92 | 0.0 | 1.6 | 0.00 | 0.00 | 0.00 | 33 | 1014.2 |
| 20260901065612 | 20 | 92 | 0.0 | 1.6 | 0.00 | 0.00 | 0.00 | 32 | 1014.1 |
| 20260901065104 | 20 | 92 | 0.0 | 1.6 | 0.00 | 0.00 | 0.00 | 32 | 1014.1 |
| 20260901064604 | 20 | 92 | 0.0 | 1.6 | 0.00 | 0.00 | 0.00 | 32 | 1014.1 |
| 20260901064103 | 20 | 92 | 0.0 | 1.6 | 0.00 | 0.00 | 0.00 | 31 | 1014.1 |
| 20260901063604 | 20 | 92 | 0.0 | 1.6 | 0.00 | 0.00 | 0.00 | 31 | 1014.1 |
| 20260901063104 | 20 | 92 | 0.0 | 1.6 | 0.00 | 0.00 | 0.00 | 34 | 1014.1 |
| 20260901062604 | 20 | 92 | 0.0 | 0.0 | 0.00 | 0.00 | 0.00 | 33 | 1014.1 |
| 20260901062104 | 20 | 92 | 0.0 | 1.6 | 0.00 | 0.00 | 0.00 | 33 | 1014.1 |
| 20260901061604 | 20 | 92 | 0.0 | 1.6 | 0.00 | 0.00 | 0.00 | 32 | 1014.1 |
| 20260901061104 | 21 | 92 | 0.0 | 4.8 | 0.00 | 0.00 | 0.00 | 32 | 1014.0 |
| 20260901060604 | 21 | 92 | 0.0 | 4.8 | 0.00 | 0.00 | 0.00 | 32 | 1014.1 |
| 20260901060104 | 20 | 105 | 1.6 | 3.2 | 0.00 | 0.00 | 0.00 | 32 | 1014.0 |
| 20260901055609 | 21 | 105 | 0.0 | 1.6 | 0.00 | 0.00 | 0.00 | 34 | 1014.1 |
| 20260901055103 | 21 | 105 | 0.0 | 1.6 | 0.00 | 0.00 | 0.00 | 34 | 1014.1 |
| 20260901054604 | 21 | 105 | 0.0 | 1.6 | 0.00 | 0.00 | 0.00 | 34 | 1014.1 |
| 20260901054104 | 21 | 105 | 0.0 | 1.6 | 0.00 | 0.00 | 0.00 | 32 | 1014.1 |
| 20260901053604 | 21 | 105 | 0.0 | 0.0 | 0.00 | 0.00 | 0.00 | 32 | 1014.1 |
| 20260901053104 | 21 | 105 | 0.0 | 0.0 | 0.00 | 0.00 | 0.00 | 32 | 1014.1 |
| 20260901052605 | 21 | 105 | 0.0 | 0.0 | 0.00 | 0.00 | 0.00 | 32 | 1014.1 |
| 20260901052104 | 21 | 105 | 0.0 | 3.2 | 0.00 | 0.00 | 0.00 | 31 | 1014.1 |
| 20260901051604 | 21 | 105 | 0.0 | 4.8 | 0.00 | 0.00 | 0.00 | 31 | 1014.1 |
| 20260901051104 | 21 | 105 | 1.6 | 4.8 | 0.00 | 0.00 | 0.00 | 31 | 1014.1 |
| 20260901050604 | 21 | 107 | 0.0 | 1.6 | 0.00 | 0.00 | 0.00 | 32 | 1014.1 |
| 20260901050104 | 22 | 107 | 0.0 | 1.6 | 0.00 | 0.00 | 0.00 | 31 | 1014.0 |
| 20260901045610 | 22 | 107 | 0.0 | 1.6 | 0.00 | 0.00 | 0.00 | 32 | 1014.0 |
| 20260901044604 | 22 | 107 | 0.0 | 1.6 | 0.00 | 0.00 | 0.00 | 34 | 1014.0 |
| 20260901044104 | 22 | 108 | 0.0 | 4.8 | 0.00 | 0.00 | 0.00 | 35 | 1014.0 |
| 20260901043104 | 22 | 119 | 1.6 | 4.8 | 0.00 | 0.00 | 0.00 | 36 | 1014.0 |
| 20260901042604 | 22 | 120 | 0.0 | 0.0 | 0.00 | 0.00 | 0.00 | 35 | 1013.9 |
| 20260901042104 | 22 | 120 | 0.0 | 1.6 | 0.00 | 0.00 | 0.00 | 36 | 1013.8 |
| 20260901041604 | 22 | 120 | 0.0 | 3.2 | 0.00 | 0.00 | 0.00 | 35 | 1013.7 |
| 20260901041104 | 23 | 120 | 0.0 | 4.8 | 0.00 | 0.00 | 0.00 | 35 | 1013.6 |
| 20260901040104 | 23 | 130 | 1.6 | 4.8 | 0.00 | 0.00 | 0.00 | 33 | 1013.4 |
| 20260901035604 | 23 | 137 | 0.0 | 3.2 | 0.00 | 0.00 | 0.00 | 32 | 1013.4 |
| 20260901035104 | 23 | 137 | 0.0 | 1.6 | 0.00 | 0.00 | 0.00 | 33 | 1013.3 |
| 20260901034604 | 23 | 138 | 0.0 | 3.2 | 0.00 | 0.00 | 0.00 | 34 | 1013.3 |
| 20260901034104 | 23 | 137 | 1.6 | 3.2 | 0.00 | 0.00 | 0.00 | 34 | 1013.3 |
| 20260901033604 | 23 | 169 | 0.0 | 1.6 | 0.00 | 0.00 | 0.00 | 34 | 1013.3 |
| 20260901033104 | 23 | 169 | 0.0 | 1.6 | 0.00 | 0.00 | 0.00 | 33 | 1013.1 |
| 20260901032104 | 24 | 169 | 0.0 | 1.6 | 0.00 | 0.00 | 0.00 | 32 | 1013.0 |
| 20260901031604 | 24 | 169 | 0.0 | 3.2 | 0.00 | 0.00 | 0.00 | 32 | 1012.9 |
| 20260901031105 | 24 | 173 | 0.0 | 3.2 | 0.00 | 0.00 | 0.00 | 32 | 1012.8 |
| 20260901030603 | 24 | 174 | 0.0 | 1.6 | 0.00 | 0.00 | 0.00 | 31 | 1012.8 |
| 20260901030105 | 25 | 174 | 0.0 | 3.2 | 0.00 | 0.00 | 0.00 | 31 | 1012.8 |
| 20260901025608 | 25 | 174 | 0.0 | 3.2 | 0.00 | 0.00 | 0.00 | 31 | 1012.8 |
| 20260901024603 | 25 | 184 | 1.6 | 3.2 | 0.00 | 0.00 | 0.00 | 30 | 1012.7 |
| 20260901024103 | 25 | 82 | 0.0 | 3.2 | 0.00 | 0.00 | 0.00 | 31 | 1012.7 |
| 20260901023604 | 25 | 80 | 0.0 | 3.2 | 0.00 | 0.00 | 0.00 | 29 | 1012.6 |
| 20260901022603 | 26 | 181 | 0.0 | 3.2 | 0.00 | 0.00 | 0.00 | 28 | 1012.3 |
| 20260901022104 | 26 | 218 | 0.0 | 3.2 | 0.00 | 0.00 | 0.00 | 26 | 1012.3 |
| 20260901021604 | 26 | 236 | 0.0 | 3.2 | 0.00 | 0.00 | 0.00 | 24 | 1012.3 |
| 20260901021105 | 26 | 236 | 0.0 | 3.2 | 0.00 | 0.00 | 0.00 | 23 | 1012.3 |
| 20260901020105 | 27 | 235 | 1.6 | 4.8 | 0.00 | 0.00 | 0.00 | 22 | 1012.2 |
| 20260901015608 | 27 | 248 | 1.6 | 4.8 | 0.00 | 0.00 | 0.00 | 23 | 1012.2 |
| 20260901015103 | 27 | 270 | 3.2 | 4.8 | 0.00 | 0.00 | 0.00 | 22 | 1012.1 |
| 20260901014604 | 27 | 264 | 3.2 | 8.0 | 0.00 | 0.00 | 0.00 | 22 | 1012.0 |
| 20260901014104 | 28 | 241 | 3.2 | 8.0 | 0.00 | 0.00 | 0.00 | 22 | 1012.0 |
| 20260901013604 | 28 | 255 | 4.8 | 8.0 | 0.00 | 0.00 | 0.00 | 21 | 1012.1 |
| 20260901013104 | 28 | 250 | 3.2 | 11.3 | 0.00 | 0.00 | 0.00 | 21 | 1012.0 |
| 20260901012604 | 28 | 257 | 4.8 | 11.3 | 0.00 | 0.00 | 0.00 | 21 | 1012.0 |
| 20260901011604 | 29 | 259 | 3.2 | 9.7 | 0.00 | 0.00 | 0.00 | 21 | 1012.1 |
| 20260901011104 | 30 | 249 | 4.8 | 9.7 | 0.00 | 0.00 | 0.00 | 20 | 1012.0 |
| 20260901010604 | 30 | 238 | 3.2 | 9.7 | 0.00 | 0.00 | 0.00 | 21 | 1012.0 |
| 20260901010104 | 30 | 234 | 4.8 | 9.7 | 0.00 | 0.00 | 0.00 | 20 | 1012.0 |
| 20260901005609 | 30 | 264 | 4.8 | 9.7 | 0.00 | 0.00 | 0.00 | 19 | 1011.9 |
| 20260901004604 | 30 | 240 | 3.2 | 12.9 | 0.00 | 0.00 | 0.00 | 20 | 1011.8 |
| 20260901004103 | 30 | 244 | 3.2 | 12.9 | 0.00 | 0.00 | 0.00 | 21 | 1011.7 |
| 20260901003603 | 30 | 227 | 4.8 | 16.1 | 0.00 | 0.00 | 0.00 | 22 | 1011.7 |
| 20260901003104 | 30 | 242 | 6.4 | 16.1 | 0.00 | 0.00 | 0.00 | 23 | 1011.7 |
| 20260901002604 | 31 | 239 | 8.0 | 16.1 | 0.00 | 0.00 | 0.00 | 23 | 1011.6 |
| 20260901002104 | 31 | 249 | 4.8 | 14.5 | 0.00 | 0.00 | 0.00 | 24 | 1011.6 |
| 20260901001604 | 31 | 235 | 4.8 | 14.5 | 0.00 | 0.00 | 0.00 | 24 | 1011.6 |
| 20260901001104 | 31 | 254 | 6.4 | 14.5 | 0.00 | 0.00 | 0.00 | 23 | 1011.5 |
| 20260901000604 | 31 | 226 | 3.2 | 16.1 | 0.00 | 0.00 | 0.00 | 23 | 1011.5 |
| 20260901000104 | 31 | 260 | 8.0 | 16.1 | 0.00 | 0.00 | 0.00 | 23 | 1011.5 |
| 20260831235604 | 31 | 235 | 8.0 | 12.9 | 0.00 | 0.00 | 0.00 | 23 | 1011.5 |
| 20260831235104 | 32 | 266 | 8.0 | 12.9 | 0.00 | 0.00 | 0.00 | 22 | 1011.5 |
| 20260831234604 | 31 | 279 | 6.4 | 11.3 | 0.00 | 0.00 | 0.00 | 23 | 1011.5 |
| 20260831234105 | 31 | 239 | 4.8 | 12.9 | 0.00 | 0.00 | 0.00 | 24 | 1011.5 |
| 20260831233605 | 31 | 271 | 8.0 | 14.5 | 0.00 | 0.00 | 0.00 | 23 | 1011.5 |
| 20260831233104 | 32 | 266 | 8.0 | 14.5 | 0.00 | 0.00 | 0.00 | 24 | 1011.5 |
| 20260831232604 | 32 | 255 | 6.4 | 14.5 | 0.00 | 0.00 | 0.00 | 23 | 1011.5 |
| 20260831231603 | 32 | 256 | 6.4 | 19.3 | 0.00 | 0.00 | 0.00 | 24 | 1011.5 |
| 20260831231104 | 32 | 268 | 9.7 | 19.3 | 0.00 | 0.00 | 0.00 | 23 | 1011.5 |
| 20260831230107 | 32 | 237 | 9.7 | 16.1 | 0.00 | 0.00 | 0.00 | 23 | 1011.6 |
| 20260831225106 | 32 | 276 | 1.6 | 12.9 | 0.00 | 0.00 | 0.00 | 25 | 1011.6 |
| 20260831224604 | 31 | 262 | 8.0 | 11.3 | 0.00 | 0.00 | 0.00 | 26 | 1011.6 |
| 20260831224104 | 31 | 267 | 6.4 | 12.9 | 0.00 | 0.00 | 0.00 | 24 | 1011.9 |
| 20260831223604 | 31 | 281 | 6.4 | 12.9 | 0.00 | 0.00 | 0.00 | 24 | 1011.9 |
| 20260831223104 | 31 | 255 | 4.8 | 12.9 | 0.00 | 0.00 | 0.00 | 23 | 1011.9 |
| 20260831221604 | 32 | 269 | 4.8 | 12.9 | 0.00 | 0.00 | 0.00 | 22 | 1012.0 |
| 20260831220604 | 31 | 263 | 8.0 | 14.5 | 0.00 | 0.00 | 0.00 | 22 | 1012.1 |
| 20260831215104 | 31 | 275 | 8.0 | 12.9 | 0.00 | 0.00 | 0.00 | 24 | 1012.1 |
| 20260831214604 | 32 | 252 | 8.0 | 12.9 | 0.00 | 0.00 | 0.00 | 23 | 1012.1 |
| 20260831214104 | 31 | 271 | 6.4 | 19.3 | 0.00 | 0.00 | 0.00 | 24 | 1012.1 |
| 20260831212604 | 32 | 262 | 8.0 | 19.3 | 0.00 | 0.00 | 0.00 | 22 | 1012.3 |
| 20260831212103 | 31 | 276 | 6.4 | 19.3 | 0.00 | 0.00 | 0.00 | 22 | 1012.3 |
| 20260831211604 | 31 | 264 | 8.0 | 19.3 | 0.00 | 0.00 | 0.00 | 21 | 1012.6 |
| 20260831211104 | 31 | 274 | 4.8 | 12.9 | 0.00 | 0.00 | 0.00 | 21 | 1012.5 |
| 20260831210604 | 31 | 284 | 4.8 | 12.9 | 0.00 | 0.00 | 0.00 | 22 | 1012.6 |
| 20260831210106 | 31 | 270 | 4.8 | 14.5 | 0.00 | 0.00 | 0.00 | 21 | 1012.7 |
| 20260831205108 | 31 | 266 | 4.8 | 12.9 | 0.00 | 0.00 | 0.00 | 21 | 1012.7 |
| 20260831204604 | 31 | 265 | 8.0 | 11.3 | 0.00 | 0.00 | 0.00 | 20 | 1012.7 |
| 20260831204104 | 31 | 260 | 8.0 | 11.3 | 0.00 | 0.00 | 0.00 | 20 | 1012.7 |
| 20260831203604 | 31 | 280 | 6.4 | 14.5 | 0.00 | 0.00 | 0.00 | 22 | 1012.7 |
| 20260831202604 | 31 | 254 | 4.8 | 14.5 | 0.00 | 0.00 | 0.00 | 23 | 1012.6 |
| 20260831202104 | 31 | 276 | 8.0 | 11.3 | 0.00 | 0.00 | 0.00 | 23 | 1012.6 |
| 20260831201604 | 31 | 285 | 8.0 | 11.3 | 0.00 | 0.00 | 0.00 | 23 | 1012.6 |
| 20260831201104 | 31 | 265 | 4.8 | 11.3 | 0.00 | 0.00 | 0.00 | 24 | 1012.7 |
| 20260831200604 | 30 | 263 | 6.4 | 11.3 | 0.00 | 0.00 | 0.00 | 25 | 1012.7 |
| 20260831200104 | 30 | 287 | 8.0 | 12.9 | 0.00 | 0.00 | 0.00 | 24 | 1012.7 |
| 20260831195604 | 31 | 304 | 8.0 | 14.5 | 0.00 | 0.00 | 0.00 | 23 | 1012.8 |
| 20260831195104 | 31 | 243 | 4.8 | 14.5 | 0.00 | 0.00 | 0.00 | 21 | 1012.8 |
| 20260831194604 | 31 | 259 | 6.4 | 11.3 | 0.00 | 0.00 | 0.00 | 21 | 1012.8 |
| 20260831194105 | 31 | 273 | 6.4 | 11.3 | 0.00 | 0.00 | 0.00 | 22 | 1012.9 |
| 20260831193604 | 31 | 271 | 4.8 | 11.3 | 0.00 | 0.00 | 0.00 | 22 | 1012.9 |
| 20260831193104 | 30 | 221 | 6.4 | 14.5 | 0.00 | 0.00 | 0.00 | 21 | 1013.0 |
| 20260831192604 | 30 | 269 | 8.0 | 14.5 | 0.00 | 0.00 | 0.00 | 24 | 1013.0 |
| 20260831192104 | 30 | 281 | 4.8 | 11.3 | 0.00 | 0.00 | 0.00 | 27 | 1013.0 |
| 20260831191604 | 30 | 270 | 8.0 | 11.3 | 0.00 | 0.00 | 0.00 | 28 | 1013.1 |
| 20260831191104 | 29 | 298 | 6.4 | 11.3 | 0.00 | 0.00 | 0.00 | 26 | 1013.1 |
| 20260831190604 | 29 | 271 | 3.2 | 9.7 | 0.00 | 0.00 | 0.00 | 27 | 1013.1 |
| 20260831190106 | 29 | 273 | 8.0 | 9.7 | 0.00 | 0.00 | 0.00 | 29 | 1013.0 |
| 20260831185604 | 29 | 243 | 4.8 | 11.3 | 0.00 | 0.00 | 0.00 | 31 | 1013.1 |
| 20260831185107 | 28 | 281 | 4.8 | 11.3 | 0.00 | 0.00 | 0.00 | 31 | 1013.1 |
| 20260831184604 | 28 | 259 | 1.6 | 11.3 | 0.00 | 0.00 | 0.00 | 32 | 1013.1 |
| 20260831184103 | 28 | 268 | 3.2 | 8.0 | 0.00 | 0.00 | 0.00 | 32 | 1013.1 |
| 20260831183604 | 28 | 253 | 4.8 | 9.7 | 0.00 | 0.00 | 0.00 | 32 | 1013.2 |
| 20260831183103 | 28 | 291 | 3.2 | 11.3 | 0.00 | 0.00 | 0.00 | 32 | 1013.2 |
| 20260831182604 | 28 | 283 | 4.8 | 12.9 | 0.00 | 0.00 | 0.00 | 33 | 1013.2 |
| 20260831182106 | 28 | 297 | 4.8 | 12.9 | 0.00 | 0.00 | 0.00 | 35 | 1013.2 |
| 20260831181104 | 27 | 272 | 4.8 | 9.7 | 0.00 | 0.00 | 0.00 | 38 | 1013.1 |
| 20260831180604 | 27 | 283 | 4.8 | 9.7 | 0.00 | 0.00 | 0.00 | 38 | 1013.2 |
| 20260831180104 | 27 | 274 | 4.8 | 9.7 | 0.00 | 0.00 | 0.00 | 41 | 1013.1 |
| 20260831175104 | 26 | 286 | 3.2 | 9.7 | 0.00 | 0.00 | 0.00 | 43 | 1013.0 |
| 20260831174604 | 26 | 275 | 4.8 | 9.7 | 0.00 | 0.00 | 0.00 | 44 | 1013.0 |
| 20260831174104 | 26 | 280 | 4.8 | 8.0 | 0.00 | 0.00 | 0.00 | 43 | 1013.0 |
| 20260831173604 | 26 | 255 | 4.8 | 8.0 | 0.00 | 0.00 | 0.00 | 45 | 1013.0 |
| 20260831173103 | 26 | 260 | 3.2 | 8.0 | 0.00 | 0.00 | 0.00 | 45 | 1013.1 |
| 20260831172603 | 26 | 271 | 3.2 | 8.0 | 0.00 | 0.00 | 0.00 | 48 | 1013.1 |
| 20260831172104 | 25 | 279 | 4.8 | 8.0 | 0.00 | 0.00 | 0.00 | 46 | 1013.1 |
| 20260831171604 | 25 | 314 | 1.6 | 8.0 | 0.00 | 0.00 | 0.00 | 48 | 1013.1 |
| 20260831171104 | 25 | 311 | 3.2 | 4.8 | 0.00 | 0.00 | 0.00 | 49 | 1013.0 |
| 20260831170109 | 24 | 254 | 3.2 | 4.8 | 0.00 | 0.00 | 0.00 | 50 | 1012.9 |
| 20260831165604 | 24 | 274 | 3.2 | 4.8 | 0.00 | 0.00 | 0.00 | 49 | 1012.9 |
| 20260831165110 | 23 | 298 | 3.2 | 4.8 | 0.00 | 0.00 | 0.00 | 50 | 1012.8 |
| 20260831164604 | 23 | 270 | 3.2 | 4.8 | 0.00 | 0.00 | 0.00 | 49 | 1012.9 |
| 20260831164105 | 23 | 273 | 3.2 | 4.8 | 0.00 | 0.00 | 0.00 | 52 | 1012.9 |
| 20260831163604 | 23 | 275 | 3.2 | 4.8 | 0.00 | 0.00 | 0.00 | 53 | 1012.9 |
| 20260831163104 | 22 | 263 | 1.6 | 4.8 | 0.00 | 0.00 | 0.00 | 53 | 1012.9 |
| 20260831162604 | 22 | 261 | 1.6 | 4.8 | 0.00 | 0.00 | 0.00 | 50 | 1013.0 |
| 20260831162104 | 22 | 269 | 1.6 | 4.8 | 0.00 | 0.00 | 0.00 | 49 | 1013.0 |
| 20260831161604 | 22 | 269 | 1.6 | 4.8 | 0.00 | 0.00 | 0.00 | 48 | 1013.0 |
| 20260831160604 | 21 | 260 | 3.2 | 4.8 | 0.00 | 0.00 | 0.00 | 50 | 1012.9 |
| 20260831160104 | 21 | 270 | 3.2 | 4.8 | 0.00 | 0.00 | 0.00 | 50 | 1012.9 |
| 20260831155604 | 21 | 270 | 3.2 | 4.8 | 0.00 | 0.00 | 0.00 | 51 | 1012.8 |
| 20260831155104 | 21 | 272 | 3.2 | 4.8 | 0.00 | 0.00 | 0.00 | 51 | 1012.8 |
| 20260831154604 | 21 | 254 | 3.2 | 4.8 | 0.00 | 0.00 | 0.00 | 50 | 1012.9 |
| 20260831153604 | 20 | 194 | 3.2 | 4.8 | 0.00 | 0.00 | 0.00 | 54 | 1012.8 |
| 20260831153104 | 20 | 152 | 0.0 | 4.8 | 0.00 | 0.00 | 0.00 | 57 | 1012.7 |
| 20260831152104 | 20 | 148 | 1.6 | 4.8 | 0.00 | 0.00 | 0.00 | 60 | 1012.5 |
| 20260831151604 | 20 | 148 | 1.6 | 4.8 | 0.00 | 0.00 | 0.00 | 61 | 1012.5 |
| 20260831151104 | 20 | 148 | 1.6 | 3.2 | 0.00 | 0.00 | 0.00 | 61 | 1012.5 |
| 20260831150107 | 20 | 148 | 0.0 | 3.2 | 0.00 | 0.00 | 0.00 | 64 | 1012.4 |
| 20260831145603 | 20 | 148 | 1.6 | 3.2 | 0.00 | 0.00 | 0.00 | 63 | 1012.4 |
| 20260831143604 | 18 | 148 | 0.0 | 0.0 | 0.00 | 0.00 | 0.00 | 60 | 1012.4 |
| 20260831143104 | 18 | 148 | 0.0 | 0.0 | 0.00 | 0.00 | 0.00 | 60 | 1012.4 |
| 20260831142604 | 18 | 148 | 0.0 | 0.0 | 0.00 | 0.00 | 0.00 | 62 | 1012.4 |
| 20260831142104 | 18 | 148 | 0.0 | 0.0 | 0.00 | 0.00 | 0.00 | 65 | 1012.4 |
| 20260831141104 | 18 | 148 | 0.0 | 0.0 | 0.00 | 0.00 | 0.00 | 65 | 1012.3 |
| 20260831140606 | 18 | 148 | 0.0 | 0.0 | 0.00 | 0.00 | 0.00 | 64 | 1012.3 |
| 20260831140104 | 18 | 148 | 0.0 | 1.6 | 0.00 | 0.00 | 0.00 | 63 | 1012.2 |
| 20260831135605 | 18 | 148 | 0.0 | 1.6 | 0.00 | 0.00 | 0.00 | 62 | 1012.2 |
| 20260831135104 | 18 | 148 | 1.6 | 1.6 | 0.00 | 0.00 | 0.00 | 61 | 1012.1 |
| 20260831134604 | 18 | 148 | 0.0 | 3.2 | 0.00 | 0.00 | 0.00 | 58 | 1012.1 |
| 20260831134104 | 18 | 148 | 0.0 | 3.2 | 0.00 | 0.00 | 0.00 | 54 | 1012.0 |
| 20260831133604 | 17 | 148 | 1.6 | 4.8 | 0.00 | 0.00 | 0.00 | 54 | 1012.0 |
| 20260831133104 | 17 | 148 | 3.2 | 4.8 | 0.00 | 0.00 | 0.00 | 56 | 1011.9 |
| 20260831132604 | 17 | 148 | 0.0 | 3.2 | 0.00 | 0.00 | 0.00 | 59 | 1011.9 |
| 20260831132104 | 17 | 148 | 0.0 | 1.6 | 0.00 | 0.00 | 0.00 | 56 | 1012.0 |
| 20260831131604 | 17 | 148 | 0.0 | 3.2 | 0.00 | 0.00 | 0.00 | 53 | 1011.9 |
| 20260831131104 | 17 | 148 | 0.0 | 4.8 | 0.00 | 0.00 | 0.00 | 52 | 1011.9 |
| 20260831130606 | 17 | 148 | 1.6 | 4.8 | 0.00 | 0.00 | 0.00 | 52 | 1011.9 |
| 20260831130107 | 17 | 148 | 0.0 | 0.0 | 0.00 | 0.00 | 0.00 | 62 | 1011.8 |
| 20260831125604 | 17 | 148 | 0.0 | 0.0 | 0.00 | 0.00 | 0.00 | 68 | 1011.8 |